Location: Little Elm
(33.1626°N, 96.9375°W)
Time: 14:07:53
(UTC+00:00)

Cosmos 1515 Rocket - Pass Details

Date: 12 July 2022
Orbit: 604 x 631 km, 82.5° (Epoch: 08 August)

Event Time Altitude Azimuth Distance (km) Brightness Sun altitude
Rises 07:50:08 0° 1° (N) 2,875 8.0 -31.9°
Reaches altitude 10° 07:52:27 10° 8° (N) 1,964 6.9 -31.8°
Enters shadow 07:54:59 30° 31° (NNE) 1,092 5.3 -31.6°
